This is the latest recevied weather packets stored in our database for station/object KC9Q. If no packets are shown the sender has not sent any weather packets the latest 10 day(s).
| Time | Temp. | Humidity | Pressure | Rain* | Wind** | Luminosity | Snow |
|---|---|---|---|---|---|---|---|
| 1777379705 | 18.33° C | 91% | 1014.7 hPa | 0 mm | - | 57 W/m² | - |
| 1777379400 | 17.78° C | 95% | 1014.6 hPa | 0 mm | - | 55 W/m² | - |
| 1777379096 | 17.78° C | 97% | 1014.5 hPa | 0 mm | - | 52 W/m² | - |
| 1777378796 | 17.78° C | 98% | 1014.3 hPa | 0 mm | - | 50 W/m² | - |
| 1777378494 | 17.78° C | 98% | 1014.3 hPa | 0 mm | - | 47 W/m² | - |
| 1777378189 | 17.78° C | 98% | 1014.4 hPa | 0 mm | - | 43 W/m² | - |
| 1777377888 | 17.78° C | 98% | 1014.4 hPa | 0 mm | - | 38 W/m² | - |
| 1777377587 | 17.78° C | 98% | 1014.5 hPa | 0 mm | - | 33 W/m² | - |
| 1777377283 | 17.78° C | 98% | 1014.1 hPa | 0 mm | - | 31 W/m² | - |
| 1777376980 | 17.78° C | 98% | 1014.1 hPa | 0 mm | - | 25 W/m² | - |
| 1777376677 | 17.78° C | 99% | 1014.1 hPa | 0 mm | - | 25 W/m² | - |
| 1777376375 | 17.78° C | 99% | 1014.2 hPa | 0 mm | - | 22 W/m² | - |
| 1777376074 | 17.78° C | 98% | 1013.8 hPa | 0 mm | - | 21 W/m² | - |
| 1777375774 | 17.78° C | 98% | 1013.8 hPa | 0 mm | - | 15 W/m² | - |
| 1777375470 | 17.78° C | 98% | 1013.7 hPa | 0 mm | - | 10 W/m² | - |
| 1777375166 | 17.78° C | 98% | 1013.5 hPa | 0 mm | - | 7 W/m² | - |
| 1777374866 | 17.78° C | 98% | 1013.3 hPa | 0 mm | - | 4 W/m² | - |
| 1777374562 | 17.22° C | 98% | 1013.4 hPa | 0 mm | - | 3 W/m² | - |
| 1777374259 | 17.78° C | 98% | 1013.1 hPa | 0 mm | - | 1 W/m² | - |
| 1777373955 | 17.78° C | 98% | 1012.9 hPa | 0 mm | - | 1 W/m² | - |
| 1777373652 | 17.78° C | 98% | 1013 hPa | 0 mm | - | 0 W/m² | - |
| 1777373349 | 17.78° C | 98% | 1013.2 hPa | 0 mm | - | 0 W/m² | - |
| 1777373044 | 17.78° C | 98% | 1012.9 hPa | 0 mm | - | 0 W/m² | - |
| 1777372740 | 17.78° C | 97% | 1013 hPa | 0 mm | - | 0 W/m² | - |
| 1777372439 | 17.78° C | 97% | 1012.8 hPa | 0 mm | - | 0 W/m² | - |
* Rain latest hour (hover to see other rain measurements)
** Current wind speed in m/s (hover to see current wind gust speed)